Regional Weather Roundup
Issued by NWS

Home | Current Version | Previous Version | Graphics & Text | Print | Product List | Glossary Off
Versions: 1 2 3 4 5 6 7 8 9 10 11 12 13 14 15 16 17 18 19 20 21 22 23 24 25 26 27 28 29 30 31 32 33 34 35 36 37 38 39 40 41 42 43 44 45 46 47 48 49 50

000
ASUS43 KDTX 190410
RWRMI
MICHIGAN HOURLY REGIONAL WEATHER ROUNDUP
NATIONAL WEATHER SERVICE DETROIT/PONTIAC MI
1200 AM EDT FRI SEP 19 2014

NOTE: "FAIR" INDICATES FEW OR NO CLOUDS BELOW 12,000 FEET WITH NO
SIGNIFICANT WEATHER AND/OR OBSTRUCTION TO VISIBILITY.

MIZ047>049-052>055-059>063-066>070-074>076-081>083-190500-
SOUTHEAST LOWER MICHIGAN

CITY           SKY/WX    TMP DP  RH WIND       PRES   REMARKS
ADRIAN         PTCLDY    53  49  86 E7        30.22R
ALMA           CLEAR     42  41  97 E6        30.24R
ANN ARBOR      CLEAR     51  45  79 E6        30.22R
BAD AXE        CLEAR     37  36  97 CALM      30.26R
DETROIT CITY   CLEAR     51  43  74 CALM      30.24R
DETROIT        PTCLDY    50  44  80 N5        30.23R
FLINT          CLEAR     46  41  82 E6        30.25R
GROSSE ILE     CLEAR     52  46  82 E7        30.22R
HILLSDALE      PTCLDY    51  51 100 E3        30.20S FOG
HOWELL         CLEAR     46  46  99 E5        30.23R FOG

CITY           SKY/WX    TMP DP  RH WIND       PRES   REMARKS
JACKSON        CLEAR     50  48  93 CALM      30.21R
LAMBERTVILLE   CLOUDY    55  50  82 NE3       30.22R
LANSING        CLEAR     46  44  93 E5        30.22S
LAPEER         NOT AVBL
MASON          CLEAR     47  46  97 CALM      30.22R FOG
MONROE         PTCLDY    52  46  82 NE6       30.21R
MT. CLEMENS    CLEAR     46  45  99 W2        30.22R
PONTIAC        CLEAR     46  41  82 NE6       30.23R
PORT HOPE        N/A     51  40  65 NE8       30.24R
PORT HURON     CLEAR     39  39 100 CALM      30.23S
TRI CITIES     CLEAR     44  39  82 E6        30.25R
YPSILANTI      CLEAR     52  44  74 NE8       30.23R
$$
MIZ043>046-050>051-056>058-064>065-071>073-077>080-190500-
SOUTHWEST LOWER MICHIGAN

CITY           SKY/WX    TMP DP  RH WIND       PRES   REMARKS
BATTLE CREEK   CLEAR     54  49  83 E6        30.21R
BENTON HARBOR  CLEAR     53  51  93 E5        30.17R
BIG RAPIDS     CLEAR     46  46 100 S6        30.21S
COLDWATER      CLEAR     55  52  90 E5        30.20R
HOLLAND        CLEAR     53  50  89 E6        30.19S
GRAND RAPIDS   CLEAR     51  48  89 E8        30.21R
KALAMAZOO      CLEAR     53  49  86 CALM      30.20R
MARSHALL       CLEAR     50  49  96 CALM      30.21R
MUSKEGON       CLEAR     52  49  89 SE7       30.19S
$$
MIZ016>042-190500-
NORTHERN LOWER MICHIGAN

CITY           SKY/WX    TMP DP  RH WIND       PRES   REMARKS
ALPENA         PTCLDY    36  34  92 CALM      30.25S
BEAVER ISLAND  CLEAR     47  45  93 E5        30.19R
CADILLAC       CLOUDY    48  47  95 SE7       30.20S
CHARLEVOIX     PTCLDY    47  43  85 SE7       30.22S
FRANKFORT      PTCLDY    45  42  89 CALM      30.18S
GAYLORD        CLEAR     41  38  89 SE7       30.22R
GRAYLING       CLOUDY    43  40  90 SE8       30.23S
HARBOR SPRINGS PTCLDY    44  40  87 NE6       30.21S
HOUGHTON LAKE  MOCLDY    42  40  92 E6        30.23S
MANISTEE       CLEAR     45  43  93 E6        30.20R
OSCODA         PTCLDY    36  33  90 CALM      30.25S
PELLSTON       PTCLDY    44  39  82 SE8       30.22S
TRAVERSE CITY  MOCLDY    50  46  86 CALM      30.18R
$$
MIZ007>008-015-190500-
EASTERN UPPER MICHIGAN

CITY           SKY/WX    TMP DP  RH WIND       PRES   REMARKS
KINROSS        CLEAR     37  36  93 SE8       30.22R
MACKINAC ISLAN PTCLDY    46  38  76 SE9G16    30.22R
NEWBERRY       CLEAR     37  36  93 CALM      30.20R
S. S. MARIE    CLEAR     40  35  83 E3        30.23R
$$
MIZ004>006-011>014-085-190500-
CENTRAL UPPER MICHIGAN

CITY           SKY/WX    TMP DP  RH WIND       PRES   REMARKS
MANISTIQUE     CLOUDY    42  41  97 CALM      30.18S
ESCANABA       CLEAR     43  39  87 CALM      30.17F
MENOMINEE      CLEAR     45  43  93 CALM      30.17S
SAWYER-GWINN   CLOUDY    46  41  82 S9        30.14F
$$
MIZ001>003-009>011-084-190500-
WESTERN UPPER MICHIGAN

CITY           SKY/WX    TMP DP  RH WIND       PRES   REMARKS
IRON MOUNTAIN  CLEAR     44  42  93 SE3       30.15S
HOUGHTON       CLEAR     45  43  93 E7        30.08F
COPPER HARBOR    N/A     47  43  86 SW6       30.08F
IRONWOOD       CLEAR     52  48  87 S13G22    30.03F
$$

ABBREVIATIONS USED IN REMARKS
   TC - TEMPERATURE IN CELSIUS
  WCI - WIND CHILL INDEX
   HX - HEAT INDEX
  VSB - VISIBILITY



USA.gov is the U.S. government's official web portal to all federal, state and local government web resources and services.